WXM80 ListenWXM80 Stop

You find our weather info also at:

UK Metoffice

WeatherCloud

Weather Underground

Northeastern Weather Network

AWEKAS

Citizen Weather Observer Program (CWOP)

HAMweather, WeatherForYou, PWS Weather


Weather Underground History page Text

Daily Summary for March 26, 2017 Units:  English    Metric   Both
« Previous Day
Next Day »
Daily Weekly Monthly Yearly Custom
  High: Low: Average:
Temperature: 40.4 °F 36.4 °F 38.8 °F
Dew Point: 37.5 °F 33.7 °F 36 °F
Humidity: 96 % 84 % 90 %
Wind Speed: 10.7 mph 1.1 mph 6.7 mph
Wind Gust: 17.3 mph - -
Wind:- - ENE
Pressure: 30.46 in 30.30 in -
Precipitation: 0.00 in    
Historical Graphs
 
 
Tabular Data for March 26, 2017
Time Temperature Dew Point Pressure Wind Wind Speed Wind Gust Humidity Rainfall Rate (Hourly)
00:01 39.8 °F 37.1 °F 30.38 in NE 4.1 mph 4.6 mph 90 % 0.00 in
00:06 39.8 °F 37.1 °F 30.37 in NE 3.5 mph 5.0 mph 90 % 0.00 in
00:11 39.8 °F 37.1 °F 30.37 in ENE 5.0 mph 8.1 mph 90 % 0.00 in
00:16 39.7 °F 37.3 °F 30.38 in NE 1.9 mph 3.5 mph 91 % 0.00 in
00:21 39.7 °F 37.3 °F 30.38 in ENE 3.1 mph 4.6 mph 91 % 0.00 in
00:26 39.6 °F 37.2 °F 30.38 in ENE 4.0 mph 6.9 mph 91 % 0.00 in
00:31 39.6 °F 36.9 °F 30.38 in ENE 4.3 mph 6.9 mph 90 % 0.00 in
00:36 39.5 °F 36.8 °F 30.38 in ENE 4.1 mph 8.1 mph 90 % 0.00 in
00:41 39.4 °F 36.7 °F 30.38 in ENE 4.8 mph 10.4 mph 90 % 0.00 in
00:46 39.4 °F 36.7 °F 30.38 in NE 2.4 mph 3.5 mph 90 % 0.00 in
00:51 39.4 °F 36.4 °F 30.38 in ENE 4.9 mph 11.0 mph 89 % 0.00 in
00:56 39.4 °F 36.4 °F 30.38 in ENE 5.3 mph 9.2 mph 89 % 0.00 in
01:01 39.4 °F 36.4 °F 30.39 in NE 3.6 mph 4.6 mph 89 % 0.00 in
01:06 39.4 °F 36.4 °F 30.38 in East 5.0 mph 9.2 mph 89 % 0.00 in
01:11 39.4 °F 36.4 °F 30.39 in NE 3.3 mph 8.0 mph 89 % 0.00 in
01:16 39.4 °F 36.4 °F 30.38 in NE 3.8 mph 6.9 mph 89 % 0.00 in
01:21 39.4 °F 36.4 °F 30.38 in NE 3.1 mph 5.0 mph 89 % 0.00 in
01:26 39.3 °F 36.3 °F 30.38 in NE 6.8 mph 10.4 mph 89 % 0.00 in
01:31 39.3 °F 36.3 °F 30.38 in NE 5.6 mph 11.5 mph 89 % 0.00 in
01:37 39.3 °F 36.3 °F 30.38 in ENE 5.4 mph 9.2 mph 89 % 0.00 in
01:42 39.3 °F 36.3 °F 30.37 in ENE 4.8 mph 8.1 mph 89 % 0.00 in
01:47 39.2 °F 36.2 °F 30.39 in ENE 3.0 mph 8.1 mph 89 % 0.00 in
01:52 39.1 °F 36.1 °F 30.38 in ENE 6.1 mph 9.2 mph 89 % 0.00 in
01:57 39.1 °F 36.1 °F 30.39 in ENE 4.6 mph 7.0 mph 89 % 0.00 in
02:02 39.1 °F 36.4 °F 30.38 in ENE 5.8 mph 7.0 mph 90 % 0.00 in
02:07 39.1 °F 36.4 °F 30.39 in East 4.6 mph 8.1 mph 90 % 0.00 in
02:12 39.1 °F 36.4 °F 30.39 in East 4.5 mph 8.1 mph 90 % 0.00 in
02:17 39.1 °F 36.4 °F 30.39 in East 4.1 mph 6.0 mph 90 % 0.00 in
02:22 39.1 °F 36.4 °F 30.39 in ENE 3.0 mph 4.0 mph 90 % 0.00 in
02:27 39.1 °F 36.4 °F 30.40 in East 3.6 mph 5.0 mph 90 % 0.00 in
02:32 39.1 °F 36.4 °F 30.39 in East 5.1 mph 7.0 mph 90 % 0.00 in
02:37 39.1 °F 36.4 °F 30.40 in East 3.2 mph 4.6 mph 90 % 0.00 in
02:42 39.1 °F 36.4 °F 30.40 in ENE 3.4 mph 6.9 mph 90 % 0.00 in
02:47 39.1 °F 36.4 °F 30.39 in ENE 4.8 mph 5.8 mph 90 % 0.00 in
02:52 39.0 °F 36.3 °F 30.39 in NE 5.9 mph 8.1 mph 90 % 0.00 in
02:57 39.0 °F 36.3 °F 30.39 in NE 6.2 mph 8.1 mph 90 % 0.00 in
03:02 38.9 °F 36.2 °F 30.40 in ENE 5.2 mph 8.1 mph 90 % 0.00 in
03:07 38.9 °F 35.9 °F 30.39 in ENE 6.0 mph 9.0 mph 89 % 0.00 in
03:12 38.9 °F 35.9 °F 30.40 in ENE 7.0 mph 12.0 mph 89 % 0.00 in
03:17 38.9 °F 35.9 °F 30.40 in ENE 5.0 mph 8.0 mph 89 % 0.00 in
03:22 38.9 °F 35.6 °F 30.40 in ENE 6.0 mph 10.0 mph 88 % 0.00 in
03:27 38.8 °F 35.3 °F 30.40 in ENE 6.0 mph 10.0 mph 87 % 0.00 in
03:32 38.8 °F 35.3 °F 30.40 in ENE 6.0 mph 12.0 mph 87 % 0.00 in
03:37 38.7 °F 35.2 °F 30.40 in ENE 6.0 mph 12.0 mph 87 % 0.00 in
03:42 38.7 °F 34.9 °F 30.40 in ENE 8.0 mph 13.0 mph 86 % 0.00 in
03:47 38.6 °F 34.8 °F 30.40 in ENE 7.0 mph 12.0 mph 86 % 0.00 in
03:52 38.6 °F 35.0 °F 30.40 in ENE 8.0 mph 12.0 mph 87 % 0.00 in
04:07 38.1 °F 35.1 °F 30.40 in ENE 7.0 mph 12.0 mph 89 % 0.00 in
04:12 37.9 °F 34.9 °F 30.40 in ENE 5.0 mph 10.0 mph 89 % 0.00 in
04:17 37.9 °F 35.2 °F 30.40 in ENE 7.0 mph 12.0 mph 90 % 0.00 in
04:22 37.8 °F 35.1 °F 30.40 in ENE 7.0 mph 12.0 mph 90 % 0.00 in
04:27 37.7 °F 35.0 °F 30.40 in NE 7.4 mph 11.5 mph 90 % 0.00 in
04:32 37.7 °F 35.0 °F 30.39 in ENE 9.0 mph 15.0 mph 90 % 0.00 in
04:37 37.7 °F 34.8 °F 30.40 in ENE 9.0 mph 12.0 mph 89 % 0.00 in
04:42 37.7 °F 34.8 °F 30.40 in ENE 8.0 mph 12.0 mph 89 % 0.00 in
04:47 37.8 °F 34.8 °F 30.40 in ENE 8.0 mph 13.0 mph 89 % 0.00 in
04:52 37.8 °F 34.8 °F 30.40 in ENE 10.0 mph 13.0 mph 89 % 0.00 in
04:58 37.8 °F 34.6 °F 30.40 in East 9.5 mph 12.7 mph 88 % 0.00 in
05:03 37.8 °F 34.8 °F 30.40 in ENE 9.3 mph 12.7 mph 89 % 0.00 in
05:08 37.8 °F 34.8 °F 30.40 in ENE 6.7 mph 11.0 mph 89 % 0.00 in
05:13 37.8 °F 34.6 °F 30.40 in NE 7.4 mph 10.4 mph 88 % 0.00 in
05:18 37.8 °F 34.8 °F 30.40 in ENE 7.7 mph 11.5 mph 89 % 0.00 in
05:23 37.7 °F 34.8 °F 30.40 in ENE 7.4 mph 9.2 mph 89 % 0.00 in
05:28 37.7 °F 34.5 °F 30.40 in NE 8.4 mph 12.7 mph 88 % 0.00 in
05:33 37.6 °F 34.4 °F 30.40 in ENE 9.1 mph 12.7 mph 88 % 0.00 in
05:38 37.5 °F 34.3 °F 30.40 in NE 9.9 mph 12.7 mph 88 % 0.00 in
05:43 37.5 °F 34.3 °F 30.40 in East 9.0 mph 11.5 mph 88 % 0.00 in
05:48 37.5 °F 34.0 °F 30.40 in East 8.5 mph 11.5 mph 87 % 0.00 in
05:53 37.6 °F 34.1 °F 30.41 in ENE 10.1 mph 15.0 mph 87 % 0.00 in
05:58 37.6 °F 34.1 °F 30.41 in ENE 9.1 mph 12.7 mph 87 % 0.00 in
06:03 37.7 °F 34.2 °F 30.41 in East 10.0 mph 12.7 mph 87 % 0.00 in
06:08 37.7 °F 33.9 °F 30.41 in ENE 9.6 mph 11.5 mph 86 % 0.00 in
06:13 37.7 °F 33.9 °F 30.41 in ENE 8.7 mph 11.5 mph 86 % 0.00 in
06:18 37.7 °F 33.9 °F 30.41 in ENE 9.2 mph 12.0 mph 86 % 0.00 in
06:23 37.7 °F 34.2 °F 30.41 in ENE 9.1 mph 10.4 mph 87 % 0.00 in
06:28 37.6 °F 34.1 °F 30.41 in ENE 9.1 mph 14.0 mph 87 % 0.00 in
06:33 37.6 °F 34.1 °F 30.41 in ENE 8.5 mph 11.5 mph 87 % 0.00 in
06:38 37.5 °F 33.7 °F 30.41 in NE 8.9 mph 12.7 mph 86 % 0.00 in
06:43 37.5 °F 34.0 °F 30.41 in ENE 7.8 mph 13.8 mph 87 % 0.00 in
06:48 37.4 °F 33.9 °F 30.41 in ENE 8.6 mph 11.5 mph 87 % 0.00 in
06:53 37.3 °F 34.1 °F 30.41 in ENE 8.7 mph 13.8 mph 88 % 0.00 in
06:58 37.3 °F 34.1 °F 30.41 in ENE 8.0 mph 11.5 mph 88 % 0.00 in
07:03 37.3 °F 34.1 °F 30.41 in ENE 8.5 mph 11.5 mph 88 % 0.00 in
07:08 37.2 °F 34.0 °F 30.41 in ENE 8.6 mph 13.8 mph 88 % 0.00 in
07:13 37.2 °F 34.0 °F 30.41 in NE 10.1 mph 15.0 mph 88 % 0.00 in
07:19 37.1 °F 34.2 °F 30.41 in ENE 10.1 mph 13.0 mph 89 % 0.00 in
07:24 36.9 °F 34.2 °F 30.41 in NE 9.3 mph 13.8 mph 90 % 0.01 in
07:29 36.7 °F 34.3 °F 30.41 in East 9.6 mph 12.7 mph 91 % 0.01 in
07:34 36.5 °F 34.1 °F 30.41 in ENE 8.5 mph 13.8 mph 91 % 0.01 in
07:39 36.5 °F 34.4 °F 30.41 in NE 7.4 mph 11.5 mph 92 % 0.02 in
07:49 36.4 °F 34.3 °F 30.42 in ENE 9.0 mph 9.2 mph 92 % 0.02 in
07:54 36.4 °F 34.3 °F 30.42 in East 9.1 mph 14.0 mph 92 % 0.02 in
07:59 36.4 °F 34.3 °F 30.43 in ENE 7.3 mph 11.5 mph 92 % 0.02 in
08:04 36.4 °F 34.3 °F 30.43 in ENE 8.9 mph 11.5 mph 92 % 0.02 in
08:09 36.4 °F 34.3 °F 30.44 in East 7.5 mph 10.4 mph 92 % 0.02 in
08:14 36.4 °F 34.3 °F 30.43 in ENE 7.9 mph 10.4 mph 92 % 0.02 in
08:19 36.4 °F 34.3 °F 30.43 in NE 8.8 mph 15.0 mph 92 % 0.02 in
08:24 36.4 °F 34.3 °F 30.43 in ENE 8.8 mph 10.4 mph 92 % 0.01 in
08:29 36.4 °F 34.3 °F 30.43 in ENE 9.1 mph 11.5 mph 92 % 0.01 in
08:34 36.4 °F 34.3 °F 30.43 in East 8.4 mph 10.4 mph 92 % 0.01 in
08:39 36.4 °F 34.0 °F 30.43 in East 10.5 mph 14.0 mph 91 % 0.00 in
08:44 36.5 °F 34.1 °F 30.43 in ENE 8.4 mph 11.5 mph 91 % 0.00 in
08:50 36.6 °F 34.2 °F 30.43 in ENE 7.4 mph 11.5 mph 91 % 0.00 in
08:55 36.6 °F 34.2 °F 30.44 in East 8.3 mph 11.5 mph 91 % 0.00 in
09:00 36.7 °F 34.3 °F 30.44 in East 8.6 mph 11.5 mph 91 % 0.00 in
09:05 36.9 °F 34.5 °F 30.44 in East 7.4 mph 11.5 mph 91 % 0.00 in
09:10 37.0 °F 34.6 °F 30.44 in East 10.1 mph 13.8 mph 91 % 0.00 in
09:15 37.1 °F 34.7 °F 30.44 in East 7.9 mph 12.7 mph 91 % 0.00 in
09:20 37.1 °F 34.4 °F 30.43 in East 8.9 mph 11.5 mph 90 % 0.00 in
09:25 37.2 °F 34.5 °F 30.44 in East 9.1 mph 12.7 mph 90 % 0.00 in
09:27 37.3 °F 34.6 °F 30.44 in East 9.3 mph 11.5 mph 90 % 0.00 in
09:32 37.4 °F 34.7 °F 30.44 in East 8.6 mph 11.5 mph 90 % 0.00 in
09:37 37.5 °F 34.8 °F 30.44 in East 9.1 mph 11.5 mph 90 % 0.00 in
09:42 37.6 °F 34.9 °F 30.44 in East 9.0 mph 12.7 mph 90 % 0.00 in
09:47 37.7 °F 35.0 °F 30.45 in East 9.5 mph 11.5 mph 90 % 0.00 in
09:52 37.8 °F 34.8 °F 30.45 in ENE 8.0 mph 11.5 mph 89 % 0.00 in
09:57 37.9 °F 34.9 °F 30.45 in East 8.3 mph 11.5 mph 89 % 0.00 in
10:02 37.9 °F 34.9 °F 30.45 in ENE 7.1 mph 9.2 mph 89 % 0.00 in
10:07 38.1 °F 35.1 °F 30.45 in East 7.8 mph 11.5 mph 89 % 0.00 in
10:12 38.2 °F 35.2 °F 30.45 in East 7.0 mph 10.4 mph 89 % 0.00 in
10:17 38.3 °F 35.1 °F 30.45 in NE 9.0 mph 12.7 mph 88 % 0.00 in
10:22 38.4 °F 35.2 °F 30.45 in ENE 8.7 mph 13.0 mph 88 % 0.00 in
10:27 38.6 °F 35.4 °F 30.45 in ENE 8.4 mph 11.5 mph 88 % 0.00 in
10:32 38.7 °F 35.2 °F 30.45 in East 9.2 mph 11.5 mph 87 % 0.00 in
10:34 38.7 °F 35.2 °F 30.45 in ENE 10.2 mph 12.7 mph 87 % 0.00 in
10:39 38.8 °F 35.0 °F 30.45 in ENE 9.5 mph 11.5 mph 86 % 0.00 in
10:44 38.8 °F 35.0 °F 30.46 in ENE 8.1 mph 11.5 mph 86 % 0.00 in
10:49 38.8 °F 35.0 °F 30.46 in ENE 9.6 mph 13.8 mph 86 % 0.00 in
10:54 38.8 °F 35.0 °F 30.46 in ENE 8.5 mph 13.0 mph 86 % 0.00 in
10:59 38.9 °F 34.8 °F 30.46 in East 8.9 mph 11.0 mph 85 % 0.00 in
11:04 38.9 °F 35.1 °F 30.46 in ENE 8.2 mph 11.5 mph 86 % 0.00 in
11:09 39.1 °F 35.3 °F 30.46 in ENE 6.6 mph 11.5 mph 86 % 0.00 in
11:14 39.1 °F 35.0 °F 30.46 in ENE 7.2 mph 11.5 mph 85 % 0.00 in
11:19 39.1 °F 35.0 °F 30.46 in ENE 9.6 mph 11.5 mph 85 % 0.00 in
11:24 39.1 °F 35.0 °F 30.46 in ENE 9.4 mph 15.0 mph 85 % 0.00 in
11:29 39.1 °F 35.0 °F 30.45 in ENE 9.6 mph 13.0 mph 85 % 0.00 in
11:34 39.1 °F 35.0 °F 30.46 in East 6.2 mph 10.4 mph 85 % 0.00 in
11:39 39.0 °F 34.9 °F 30.46 in ENE 7.4 mph 10.0 mph 85 % 0.00 in
11:44 39.0 °F 34.9 °F 30.46 in East 8.8 mph 11.5 mph 85 % 0.00 in
11:49 39.0 °F 34.9 °F 30.46 in East 6.7 mph 10.4 mph 85 % 0.00 in
11:54 39.1 °F 35.3 °F 30.46 in East 7.3 mph 10.4 mph 86 % 0.00 in
11:59 39.3 °F 35.2 °F 30.45 in ENE 7.9 mph 11.5 mph 85 % 0.00 in
12:05 39.4 °F 35.3 °F 30.46 in ENE 7.6 mph 10.4 mph 85 % 0.00 in
12:10 39.5 °F 35.4 °F 30.45 in East 8.8 mph 10.4 mph 85 % 0.00 in
12:15 39.6 °F 35.5 °F 30.46 in NE 6.7 mph 10.4 mph 85 % 0.00 in
12:20 39.7 °F 35.6 °F 30.46 in ENE 7.4 mph 9.2 mph 85 % 0.00 in
12:25 39.8 °F 35.7 °F 30.46 in East 8.0 mph 12.7 mph 85 % 0.00 in
12:30 39.8 °F 35.4 °F 30.45 in East 7.0 mph 10.4 mph 84 % 0.00 in
12:35 39.8 °F 35.4 °F 30.45 in East 8.3 mph 12.7 mph 84 % 0.00 in
12:44 39.8 °F 35.4 °F 30.45 in ENE 7.8 mph 11.5 mph 84 % 0.00 in
12:49 39.9 °F 35.8 °F 30.45 in East 9.3 mph 11.5 mph 85 % 0.00 in
12:54 39.8 °F 35.4 °F 30.45 in ENE 8.5 mph 11.5 mph 84 % 0.00 in
13:00 39.9 °F 35.8 °F 30.45 in East 8.8 mph 11.5 mph 85 % 0.00 in
13:05 39.9 °F 35.5 °F 30.44 in ENE 9.9 mph 13.8 mph 84 % 0.00 in
13:10 39.7 °F 35.6 °F 30.44 in ENE 7.7 mph 11.5 mph 85 % 0.00 in
13:15 39.7 °F 35.3 °F 30.44 in ENE 7.2 mph 11.5 mph 84 % 0.00 in
13:20 39.6 °F 35.2 °F 30.44 in ENE 8.1 mph 11.5 mph 84 % 0.00 in
13:25 39.6 °F 35.5 °F 30.43 in NE 10.7 mph 17.3 mph 85 % 0.00 in
13:30 39.5 °F 35.4 °F 30.43 in ENE 8.5 mph 10.4 mph 85 % 0.00 in
13:35 39.4 °F 35.3 °F 30.43 in East 8.7 mph 11.5 mph 85 % 0.00 in
13:40 39.4 °F 35.3 °F 30.43 in East 7.5 mph 11.5 mph 85 % 0.00 in
13:45 39.4 °F 35.6 °F 30.43 in ENE 7.7 mph 11.0 mph 86 % 0.00 in
13:50 39.4 °F 35.6 °F 30.43 in East 7.8 mph 10.0 mph 86 % 0.00 in
13:55 39.5 °F 36.0 °F 30.42 in ENE 7.1 mph 10.0 mph 87 % 0.00 in
14:00 39.4 °F 35.6 °F 30.42 in ENE 7.9 mph 11.5 mph 86 % 0.00 in
14:05 39.4 °F 35.9 °F 30.42 in ENE 7.3 mph 10.0 mph 87 % 0.00 in
14:10 39.3 °F 35.8 °F 30.42 in NE 8.2 mph 11.5 mph 87 % 0.00 in
14:15 39.4 °F 36.1 °F 30.42 in ENE 5.9 mph 9.0 mph 88 % 0.00 in
14:20 39.4 °F 36.1 °F 30.42 in ENE 6.4 mph 9.2 mph 88 % 0.00 in
14:25 39.5 °F 36.5 °F 30.42 in ENE 8.8 mph 11.0 mph 89 % 0.00 in
14:30 39.4 °F 36.1 °F 30.41 in East 8.9 mph 11.5 mph 88 % 0.00 in
14:35 39.5 °F 36.2 °F 30.41 in East 8.3 mph 11.5 mph 88 % 0.00 in
14:40 39.4 °F 36.1 °F 30.41 in ENE 6.6 mph 10.4 mph 88 % 0.00 in
14:45 39.5 °F 36.2 °F 30.41 in ENE 8.0 mph 11.5 mph 88 % 0.00 in
14:50 39.4 °F 36.1 °F 30.41 in ENE 7.0 mph 9.2 mph 88 % 0.00 in
14:55 39.4 °F 36.4 °F 30.41 in ENE 7.4 mph 10.4 mph 89 % 0.00 in
15:00 39.4 °F 36.4 °F 30.41 in ENE 6.0 mph 9.2 mph 89 % 0.00 in
15:06 39.4 °F 36.4 °F 30.41 in ENE 7.0 mph 9.2 mph 89 % 0.00 in
15:11 39.4 °F 36.4 °F 30.40 in ENE 6.4 mph 10.4 mph 89 % 0.00 in
15:16 39.4 °F 36.7 °F 30.40 in ENE 6.9 mph 10.4 mph 90 % 0.00 in
15:21 39.4 °F 36.7 °F 30.39 in ENE 6.4 mph 11.0 mph 90 % 0.00 in
15:26 39.4 °F 36.4 °F 30.39 in East 7.9 mph 11.5 mph 89 % 0.00 in
15:31 39.5 °F 36.8 °F 30.39 in ENE 8.4 mph 11.5 mph 90 % 0.00 in
15:36 39.6 °F 36.6 °F 30.39 in ENE 6.5 mph 12.7 mph 89 % 0.00 in
15:41 39.8 °F 37.1 °F 30.39 in East 6.9 mph 9.0 mph 90 % 0.00 in
15:46 40.0 °F 37.3 °F 30.39 in ENE 7.5 mph 11.5 mph 90 % 0.00 in
15:51 40.1 °F 37.1 °F 30.38 in ENE 7.3 mph 11.5 mph 89 % 0.00 in
15:56 40.2 °F 37.2 °F 30.38 in ENE 8.5 mph 11.5 mph 89 % 0.00 in
16:01 40.3 °F 37.3 °F 30.37 in ENE 7.5 mph 9.2 mph 89 % 0.00 in
16:06 40.4 °F 37.4 °F 30.37 in ENE 8.7 mph 12.7 mph 89 % 0.00 in
16:11 40.4 °F 37.1 °F 30.37 in ENE 7.9 mph 9.2 mph 88 % 0.00 in
16:16 40.4 °F 37.4 °F 30.38 in East 8.3 mph 10.4 mph 89 % 0.00 in
16:21 40.4 °F 37.1 °F 30.38 in ENE 7.1 mph 11.5 mph 88 % 0.00 in
16:26 40.3 °F 37.3 °F 30.38 in ENE 7.3 mph 9.2 mph 89 % 0.00 in
16:31 40.3 °F 37.3 °F 30.38 in East 8.3 mph 10.4 mph 89 % 0.00 in
16:36 40.2 °F 37.2 °F 30.37 in East 8.2 mph 11.5 mph 89 % 0.00 in
16:41 40.2 °F 37.5 °F 30.38 in ENE 6.2 mph 11.5 mph 90 % 0.00 in
16:46 40.1 °F 37.4 °F 30.38 in ENE 6.4 mph 8.1 mph 90 % 0.00 in
16:52 40.0 °F 37.3 °F 30.37 in East 6.4 mph 11.5 mph 90 % 0.00 in
16:57 40.0 °F 37.3 °F 30.37 in East 8.3 mph 11.5 mph 90 % 0.00 in
17:02 39.9 °F 37.2 °F 30.37 in East 5.6 mph 8.1 mph 90 % 0.00 in
17:07 39.9 °F 37.5 °F 30.38 in East 7.0 mph 9.0 mph 91 % 0.00 in
17:12 39.9 °F 37.5 °F 30.38 in ENE 5.2 mph 9.2 mph 91 % 0.00 in
17:17 39.8 °F 37.4 °F 30.38 in ENE 6.8 mph 10.4 mph 91 % 0.00 in
17:22 39.8 °F 37.4 °F 30.38 in ENE 8.5 mph 10.4 mph 91 % 0.00 in
17:25 39.8 °F 37.4 °F 30.38 in ENE 5.3 mph 8.1 mph 91 % 0.00 in
17:30 39.7 °F 37.3 °F 30.37 in ENE 6.6 mph 10.4 mph 91 % 0.00 in
17:35 39.7 °F 37.3 °F 30.37 in ENE 6.0 mph 10.4 mph 91 % 0.00 in
17:40 39.6 °F 37.2 °F 30.37 in ENE 7.3 mph 10.4 mph 91 % 0.00 in
17:45 39.6 °F 37.5 °F 30.37 in ENE 6.5 mph 8.1 mph 92 % 0.00 in
17:50 39.6 °F 37.5 °F 30.37 in ENE 3.6 mph 8.1 mph 92 % 0.00 in
17:55 39.6 °F 37.5 °F 30.37 in ENE 4.7 mph 9.2 mph 92 % 0.00 in
18:00 39.5 °F 37.4 °F 30.37 in ENE 4.5 mph 8.1 mph 92 % 0.00 in
18:05 39.5 °F 37.4 °F 30.37 in NE 6.1 mph 9.0 mph 92 % 0.00 in
18:10 39.5 °F 37.4 °F 30.37 in ENE 5.7 mph 8.1 mph 92 % 0.00 in
18:15 39.5 °F 37.4 °F 30.36 in ENE 6.3 mph 9.2 mph 92 % 0.00 in
18:20 39.4 °F 37.3 °F 30.36 in ENE 6.1 mph 9.2 mph 92 % 0.00 in
18:22 39.4 °F 37.3 °F 30.36 in East 4.8 mph 6.9 mph 92 % 0.00 in
18:27 39.4 °F 37.3 °F 30.36 in ENE 6.0 mph 9.2 mph 92 % 0.00 in
18:32 39.4 °F 37.3 °F 30.36 in ENE 6.0 mph 10.0 mph 92 % 0.00 in
18:37 39.4 °F 37.3 °F 30.36 in ENE 7.0 mph 8.0 mph 92 % 0.00 in
18:42 39.4 °F 37.3 °F 30.36 in East 6.0 mph 9.0 mph 92 % 0.00 in
18:47 39.4 °F 37.2 °F 30.36 in ENE 6.0 mph 8.0 mph 92 % 0.00 in
18:52 39.3 °F 37.2 °F 30.36 in ENE 7.0 mph 9.0 mph 92 % 0.00 in
18:58 39.3 °F 37.2 °F 30.36 in East 6.0 mph 8.1 mph 92 % 0.00 in
19:03 39.3 °F 37.2 °F 30.36 in East 6.2 mph 8.1 mph 92 % 0.00 in
19:08 39.3 °F 37.2 °F 30.36 in East 5.4 mph 7.0 mph 92 % 0.00 in
19:13 39.4 °F 37.3 °F 30.35 in East 4.6 mph 7.0 mph 92 % 0.00 in
19:23 39.3 °F 37.2 °F 30.35 in East 3.8 mph 5.0 mph 92 % 0.00 in
19:24 39.4 °F 37.3 °F 30.35 in East 3.8 mph 6.0 mph 92 % 0.00 in
19:30 39.4 °F 37.3 °F 30.35 in East 4.0 mph 6.9 mph 92 % 0.00 in
19:35 39.6 °F 37.2 °F 30.35 in East 4.4 mph 8.1 mph 91 % 0.00 in
19:40 39.7 °F 37.0 °F 30.35 in East 3.8 mph 5.8 mph 90 % 0.00 in
19:50 39.9 °F 37.2 °F 30.34 in East 4.1 mph 7.0 mph 90 % 0.00 in
20:00 39.9 °F 37.2 °F 30.35 in ESE 3.3 mph 6.9 mph 90 % 0.00 in
20:05 39.9 °F 37.2 °F 30.35 in East 1.6 mph 3.5 mph 90 % 0.00 in
20:10 39.9 °F 37.2 °F 30.35 in East 1.1 mph 3.5 mph 90 % 0.00 in
20:15 39.9 °F 37.2 °F 30.35 in East 2.4 mph 4.6 mph 90 % 0.00 in
20:20 39.8 °F 37.1 °F 30.35 in East 4.3 mph 5.0 mph 90 % 0.00 in
20:25 39.8 °F 37.1 °F 30.34 in East 5.3 mph 5.8 mph 90 % 0.00 in
20:30 39.7 °F 37.0 °F 30.34 in East 4.7 mph 9.2 mph 90 % 0.00 in
20:35 39.7 °F 37.0 °F 30.34 in East 5.2 mph 8.1 mph 90 % 0.00 in
20:40 39.7 °F 37.0 °F 30.34 in East 5.3 mph 6.9 mph 90 % 0.00 in
20:45 39.6 °F 37.2 °F 30.35 in East 2.7 mph 5.8 mph 91 % 0.00 in
20:50 39.6 °F 37.2 °F 30.34 in East 3.7 mph 5.8 mph 91 % 0.00 in
20:55 39.5 °F 37.1 °F 30.35 in East 3.0 mph 5.0 mph 91 % 0.00 in
21:00 39.5 °F 37.4 °F 30.35 in East 4.1 mph 5.0 mph 92 % 0.00 in
21:05 39.4 °F 37.3 °F 30.35 in East 2.2 mph 3.5 mph 92 % 0.00 in
21:10 39.4 °F 37.3 °F 30.35 in ENE 2.5 mph 3.5 mph 92 % 0.00 in
21:15 39.3 °F 37.2 °F 30.35 in East 3.0 mph 5.0 mph 92 % 0.00 in
21:20 39.3 °F 37.4 °F 30.35 in ENE 2.2 mph 4.6 mph 93 % 0.00 in
21:25 39.2 °F 37.3 °F 30.35 in ENE 3.4 mph 5.0 mph 93 % 0.00 in
21:30 39.2 °F 37.3 °F 30.35 in NE 3.8 mph 7.0 mph 93 % 0.00 in
21:35 39.0 °F 37.1 °F 30.35 in ENE 4.1 mph 8.0 mph 93 % 0.00 in
21:40 38.8 °F 36.9 °F 30.34 in ENE 4.4 mph 7.0 mph 93 % 0.00 in
21:41 38.8 °F 36.9 °F 30.34 in East 4.4 mph 6.9 mph 93 % 0.00 in
21:46 38.7 °F 37.1 °F 30.34 in ENE 4.4 mph 5.8 mph 94 % 0.00 in
21:51 38.6 °F 37.0 °F 30.34 in ENE 3.4 mph 6.9 mph 94 % 0.00 in
21:56 38.6 °F 37.0 °F 30.34 in East 3.7 mph 5.8 mph 94 % 0.00 in
22:01 38.6 °F 37.3 °F 30.33 in East 3.9 mph 5.8 mph 95 % 0.00 in
22:06 38.6 °F 37.3 °F 30.33 in East 3.6 mph 6.0 mph 95 % 0.00 in
22:11 38.6 °F 37.3 °F 30.33 in ENE 4.7 mph 6.9 mph 95 % 0.00 in
22:21 38.4 °F 37.1 °F 30.33 in East 5.6 mph 7.0 mph 95 % 0.00 in
22:26 38.4 °F 37.1 °F 30.33 in NE 4.3 mph 6.9 mph 95 % 0.00 in
22:31 38.3 °F 37.0 °F 30.33 in East 6.4 mph 7.0 mph 95 % 0.00 in
22:36 38.3 °F 37.0 °F 30.32 in ENE 5.6 mph 9.2 mph 95 % 0.00 in
22:41 38.3 °F 37.3 °F 30.32 in ENE 7.7 mph 9.2 mph 96 % 0.00 in
22:46 38.2 °F 37.2 °F 30.32 in East 7.1 mph 9.2 mph 96 % 0.00 in
22:51 38.2 °F 36.9 °F 30.31 in East 6.6 mph 8.1 mph 95 % 0.00 in
22:56 38.2 °F 37.2 °F 30.31 in ENE 7.3 mph 10.4 mph 96 % 0.00 in
23:01 38.2 °F 37.2 °F 30.31 in ENE 5.9 mph 9.2 mph 96 % 0.00 in
23:06 38.1 °F 37.1 °F 30.31 in ENE 8.1 mph 11.5 mph 96 % 0.00 in
23:11 38.0 °F 37.0 °F 30.31 in ENE 6.0 mph 7.0 mph 96 % 0.00 in
23:16 38.0 °F 37.0 °F 30.31 in ENE 6.7 mph 8.1 mph 96 % 0.00 in
23:21 38.0 °F 37.0 °F 30.31 in East 5.8 mph 8.1 mph 96 % 0.00 in
23:26 38.0 °F 37.0 °F 30.31 in ENE 7.1 mph 10.4 mph 96 % 0.00 in
23:31 38.0 °F 37.0 °F 30.31 in East 6.5 mph 10.4 mph 96 % 0.00 in
23:37 38.0 °F 37.0 °F 30.31 in East 5.3 mph 8.1 mph 96 % 0.00 in
23:42 38.0 °F 37.0 °F 30.31 in ENE 5.2 mph 8.1 mph 96 % 0.00 in
23:47 38.0 °F 37.0 °F 30.30 in ENE 6.7 mph 10.4 mph 96 % 0.00 in
23:52 38.0 °F 37.0 °F 30.30 in ENE 7.6 mph 11.0 mph 96 % 0.00 in
23:57 37.9 °F 36.9 °F 30.30 in East 6.2 mph 8.1 mph 96 % 0.00 in
Crab Meadow Weather
Compliments of Weather Underground - 3 mb

Script developed by  Jim McMurry - jmcmurry@mwt.net Adapted for the template by  Wim van der Kuil - Leuven-Template.eu

Astronomy: Pluto is not a planet, because it does not have a fixed orbit and it's orbit comes in between the orbit of another planet (Neptune).